www.pogodaiklimat.ru

Погода и климат >> Архив погоды >> Аргентина >> San Miguel de Tucuman


ПОГОДА в San Miguel de Tucuman

  • Прогноз погоды в San Miguel de Tucuman
  • Монитор погоды в San Miguel de Tucuman
  • Климат города

АРХИВ ПОГОДЫ в San Miguel de Tucuman

Время (UTC), дата Ветер
(напр.,м/с)
 
Видим.   Явления Облачность Т
(С)
Тd
(С)
f
(%)
Тe
(С)
Тes
(С)
Комфортность P
(гПа)
Po
(гПа)
Тmin
(С)
Tmax
(С)
R
(мм)
R24
(мм)
S
(см)
06 15.09 С 4 12 км ясно +15.2 +11.2 77 +14 +14 1011.3 960.2
09 15.09 С 4 12 км 3/0
[Cs]
+13.6 +10.5 82 +12 +12 1010.2 959.0
12 15.09 С 5 12 км 3/0
[Cs]
+16.7 +10.7 68 +16 +18 1011.7 960.5 +13.0 +19.6
15 15.09 Ю 2 12 км 5/1 1050 м
[Cu hum Cs]
+24.5 +12.5 47 +26 +39 жарко 1009.9 959.0
18 15.09 В 3 12 км 8/6 1050 м
[Cu hum Cs]
+27.7 +12.4 39 +29 +33 жарко 1005.7 955.3
21 15.09 З 3 6000 м дым 9/6 1050 м
[Cu hum Cs]
+24.4 +12.4 47 +26 +27 жарко 1005.1 954.2
03 16.09 С 3 8000 м дым 5/0
[Ac trans]
+19.8 +13.4 67 +22 +22 комфорт 1007.6 957.2
06 16.09 С 2 8000 м дым 4/0
[Ac trans]
+16.2 +13.1 82 +16 +16 1006.8 956.4
09 16.09 З 5 8000 м дым ясно +16.0 +13.9 87 +15 +15 1008.1 957.4
12 16.09 Ю 5 9000 м дым 9/9 1200 м
[Sc]
+16.7 +12.7 77 +16 +16 1013.0 962.0 +15.2 +23.0
15 16.09 ЮВ 2 8000 м дым 8/8 1050 м
[Cu Sc]
+20.6 +12.5 60 +24 +27 комфорт 1014.0 963.0
18 16.09 ЮВ 3 8000 м дым 4/4 1050 м
[Cu hum]
+24.8 +11.0 42 +26 +33 жарко 1011.0 960.2
21 16.09 Ю 4 8000 м дым 4/4 1350 м
[Sc]
+24.6 +8.3 35 +25 +26 комфорт 1011.4 960.5
00 17.09 В 3 9000 м дым 3/3 1350 м
[Sc]
+19.5 +9.5 52 +21 +21 комфорт 1013.8 962.4 +16.7 +25.8
03 17.09 С 3 9000 м дым ясно +14.6 +9.7 72 +14 +14 1014.5 963.0
06 17.09 С 3 12 км ясно +12.2 +8.3 77 +11 +11 1012.4 961.2
09 17.09 С 2 12 км ясно +10.8 +7.6 81 +9 +9 1011.5 960.2
12 17.09 С 3 12 км ясно +15.6 +9.4 67 +15 +18 1013.0 961.6 +10.8 +20.8
15 17.09 ЮВ 2 12 км ясно +24.0 +9.9 41 +25 +40 комфорт 1012.3 961.2
18 17.09 В 4 15 км ясно +27.3 +11.1 36 +28 +39 жарко 1009.4 958.5
21 17.09 В 5 8000 м мгла 1/0
[Ac trans]
+27.8 +8.5 30 +28 +29 жарко 1007.7 956.9
00 18.09 СВ 3 9000 м мгла ясно +21.6 +8.8 44 +23 +23 комфорт 1008.2 957.2 +15.6 +28.6
03 18.09 В 5 10 км ясно +20.2 +7.4 43 +21 +21 комфорт 1008.1 957.7
06 18.09 С 3 12 км ясно +15.2 +9.2 67 +15 +15 1005.2 954.8
09 18.09 В 2 12 км ясно +14.6 +9.3 70 +14 +14 1003.4 953.0
12 18.09 штиль 0 7000 м дым ясно +17.2 +10.5 65 +17 +21 1004.6 953.8 +12.0 +22.0
15 18.09 штиль 0 7000 м дым ясно +24.8 +11.0 42 +26 +47 жарко 1003.2 953.0
18 18.09 СВ 3 8000 м дым ясно +32.0 +11.7 29 +32 +44 жарко 998.0 948.4
21 18.09 ЮЗ 6 5000 м дым ясно +29.8 +11.6 33 +30 +31 жарко 997.7 947.8
00 19.09 С 2 4000 м дым 8/4 1200 м
[Sc Cs]
+24.7 +14.0 51 +27 +27 жарко 1000.3 950.1 +17.2 +35.6
03 19.09 С 2 6000 м дым 8/0
[Ac As]
+20.2 +13.1 64 +23 +23 комфорт 1000.3 950.4
06 19.09 С 3 7000 м дым 8/0
[Ac As]
+18.6 +12.3 67 +19 +19 999.9 950.4
09 19.09 З 5 7000 м дым 5/0
[Ac trans]
+17.2 +11.5 69 +17 +17 1005.0 955.0
12 19.09 ЮЗ 5 8000 м дым 9/0
[Ac und Cs]
+18.2 +8.5 53 +18 +19 1013.0 962.2 +16.5 +24.7
15 19.09 Ю 3 12 км 8/0
[Ac As Cs]
+21.4 +5.8 36 +22 +30 комфорт 1013.2 962.2
18 19.09 ЮЗ 4 12 км 6/0
[Cs]
+23.9 +5.9 31 +24 +33 комфорт 1010.2 959.4
21 19.09 З 2 8000 м дым 5/1 1350 м
[Sc Cs]
+23.6 +7.8 36 +24 +26 комфорт 1009.7 958.9
00 20.09 З 2 6000 м дым 9/3 1200 м
[Sc Ac As Cs]
+20.2 +9.3 49 +22 +22 комфорт 1013.1 962.0 +18.2 +25.0
03 20.09 В 2 5000 м дым 4/0
[Ac trans]
+18.6 +7.6 49 +20 +20 1013.9 962.9
06 20.09 СЗ 2 6000 м дым 3/0
[Ac trans]
+16.4 +8.9 61 +17 +17 1014.1 963.0
09 20.09 С 4 6000 м дым ясно +10.8 +7.2 78 +9 +9 1014.9 963.3
12 20.09 СЗ 3 7000 м дым ясно +16.2 +8.4 60 +16 +19 1015.7 964.2 +10.7 +20.2
15 20.09 ЮВ 2 7000 м дым 3/0
[Ci sp]
+22.4 +7.3 38 +23 +39 комфорт 1013.3 962.4
18 20.09 ЮЗ 2 7000 м дым 5/0
[Ci sp]
+25.6 +7.8 32 +26 +40 жарко 1009.7 959.0
21 20.09 В 4 7000 м дым 8/0
[Cs]
+27.2 +7.7 29 +27 +28 жарко 1008.5 957.6
00 21.09 С 2 7000 м дым ясно +21.2 +10.1 49 +23 +23 комфорт 1009.4 958.4 +16.2 +27.2
03 21.09 С 3 7000 м дым 8/0
[Cs]
+17.0 +10.3 65 +17 +17 1010.2 959.3
06 21.09 С 3 6000 м дым ясно +14.0 +9.5 74 +13 +13 1009.3 958.5
09 21.09 С 4 7000 м дым ясно +14.3 +9.4 72 +13 +13 1008.1 957.4
12 21.09 С 5 7000 м дым 5/0
[Cs]
+18.8 +9.2 54 +19 +21 1009.9 959.0 +14.0 +21.2
15 21.09 штиль 0 50 км дым ?/? +29.4 +12.6 36 +31 +31 жарко 1008.3 958.1
18 21.09 Ю 4 7000 м дым ясно +34.1 +14.0 30 +35 +46 очень
жарко
1004.7 954.8
21 21.09 В 6 7000 м дым ясно +34.5 +15.0 31 +36 +37 душно 1003.1 953.3
00 22.09 СЗ 4 4000 м мгла ясно +27.0 +14.0 45 +29 +29 жарко 1004.0 953.8 +18.8 +35.2
03 22.09 С 3 8000 м дым ясно +23.2 +14.7 59 +27 +27 душно 1003.1 953.6

 

Местоположение метеостанции San Miguel de Tucuman (Аргентина): широта -26.85 долгота -65.09 высота над уровнем моря 450 м.

В архиве по умолчанию представлена погода в San Miguel de Tucuman за последнюю неделю. Архивные данные за месяц целиком и за предыдущие месяцы, начиная с января 2011 года, Вы можете получить, выбрав интересующий диапазон дат из раскрывающегося списка и нажав кнопку "Ввод!".


*Определитесь, кто Вы:
робот инопланетянин человек

Внимание! Время в таблицах - всемирное. Для получения местного времени необходимо прибавить поправку, которая в San Miguel de Tucuman равна -3 ч.

Смотрите также архив погоды в соседних городах и на ближайших метеорологических станциях:

Погода в Santiago del Estero (Аргентина) (128 км)
Погода в San Fernando del Valle de Catamarca (Аргентина) (206 км)
Погода в Salta (Аргентина) (226 км)
Погода в San Salvador de Jujuy (Аргентина) (275 км)
Погода в La Rioja (Аргентина) (328 км)
Погода в Villa de Maria del Rio Seco (Аргентина) (366 км)
Погода в Chamical (Аргентина) (407 км)
Погода в San Ramon de la Nueva Oran (Аргентина) (419 км)
Погода в Ceres (Аргентина) (456 км)
Погода в Presidencia Roque Saenz Pena (Аргентина) (458 км)

Пояснения к столбцам:

Ветер - указаны скорость ветра в м/с - средняя за 10 мин, порывы в срок и между сроками (в фигурных скобках) и направление, откуда дует ветер: С - северный, СВ - северо-восточный, В - восточный, ЮВ - юго-восточный, Ю - южный, ЮЗ - юго-западный, З - западный, СЗ - северо-западный.
Видимость - горизонтальная дальность видимости в метрах или километрах. При видимости от 1 до 10 км при отсутствии осадков обычно наблюдается дымка, при ухудшении видимости до 1 км и менее - туман. В сухую погоду видимость может ухудшаться дымом, пылью или мглою.
Явления - указаны атмосферные явления, наблюдавшиеся в срок или в последний час перед сроком; фигурными скобками обозначены явления, наблюдавшиеся между сроками (за 1-3 часа до срока); квадратными скобками обозначены град или гололедные отложения с указанием их диаметра в мм.
Облачность - указаны через наклонную черту общая и нижняя облачность в баллах и высота нижней границы облаков в метрах; квадратными скобками обозначены формы облаков: Ci - перистые, Cs - перисто-слоистые, Cc - перисто-кучевые, Ac - высококучевые, As - высокослоистые, Sc - слоисто-кучевые, Ns - слоисто-дождевые, Cu - кучевые, Cb - кучево-дождевые. Подробнее классификацию облаков см. в Атласе облаков (PDF).
T - Температура воздуха - температура, измеренная на высоте 2 м над землей.
Td - Температура точки росы - температура, при понижении до которой содержащийся в воздухе водяной пар достигнет насыщения.
f - Относительная влажность воздуха - влажноcть воздуха, измеренная на высоте 2 м над землей.
Te - Эффективная температура - температура, которую ощущает одетый по сезону человек в тени. Характеристика душности погоды. При расчете учитывается влияние влажности воздуха и скорости ветра на теплоощущения человека.
Tes - Эффективная температура на солнце - температура, которую ощущает человек, с поправкой на солнечный нагрев. Характеристика знойности погоды. Зависит от высоты солнца над горизонтом, облачности и скорости ветра. Ночью, в пасмурную погоду, а также при ветре 12 м/с и более поправка равна нулю.
P - Атмосферное давление - приведенное к уровню моря атмосферное давление.
Po - Атмосферное давление - измеренное на уровне метеостанции атмосферное давление.
Tmin - Минимальная температура - минимум температуры воздуха на высоте 2 м над землей.
Tmax - Максимальная температура - максимум температуры воздуха на высоте 2 м над землей.
R - Количество осадков - Количество выпавших осадков за период времени, мм. При наведении курсора мыши на число - период времени, за который выпало указанное количество осадков.
R24 - Количество осадков - Количество выпавших осадков за 24 часа, мм.
S - Снежный покров - Высота снежного покрова, см. При наведении курсора мыши на число - состояние снежного покрова и степень покрытия местности в баллах.